This is the latest recevied weather packets stored in our database for station/object DG5MG. If no packets are shown the sender has not sent any weather packets the latest 10 day(s).
| Time | Temp. | Humidity | Pressure | Rain* | Wind** | Luminosity | Snow |
|---|---|---|---|---|---|---|---|
| 1777937106 | 13.33° C | 83% | 1016.3 hPa | 0 mm | - | 0 W/m² | - |
| 1777936505 | 13.33° C | 82% | 1016.3 hPa | 0 mm | - | 0 W/m² | - |
| 1777936205 | 13.33° C | 82% | 1016.3 hPa | 0 mm | - | 0 W/m² | - |
| 1777934105 | 14.44° C | 80% | 1016.6 hPa | 0 mm | - | 0 W/m² | - |
| 1777933805 | 14.44° C | 80% | 1016.6 hPa | 0 mm | - | 0 W/m² | - |
| 1777932905 | 14.44° C | 79% | 1016.6 hPa | 0 mm | - | 0 W/m² | - |
| 1777932605 | 14.44° C | 78% | 1016.6 hPa | 0 mm | - | 0 W/m² | - |
| 1777931405 | 15° C | 76% | 1016.9 hPa | 0 mm | - | 0 W/m² | - |
| 1777930505 | 15° C | 76% | 1017 hPa | 0 mm | - | 0 W/m² | - |
| 1777930205 | 15.56° C | 74% | 1017.3 hPa | 0 mm | - | 0 W/m² | - |
| 1777929905 | 15.56° C | 74% | 1016.9 hPa | 0 mm | - | 0 W/m² | - |
| 1777929005 | 15.56° C | 72% | 1017.4 hPa | 0 mm | - | 0 W/m² | - |
| 1777928105 | 15.56° C | 74% | 1017.3 hPa | 0 mm | - | 0 W/m² | - |
| 1777927205 | 16.11° C | 71% | 1017.6 hPa | 0 mm | - | 0 W/m² | - |
| 1777926305 | 16.67° C | 68% | 1017.6 hPa | 0 mm | - | 0 W/m² | - |
| 1777926005 | 16.67° C | 67% | 1017.6 hPa | 0 mm | - | 0 W/m² | - |
| 1777923605 | 17.78° C | 58% | 1016.6 hPa | 0 mm | - | 0 W/m² | - |
| 1777920605 | 20° C | 53% | 1016.3 hPa | 0 mm | - | 0 W/m² | - |
| 1777920006 | 20.56° C | 51% | 1016.3 hPa | 0 mm | - | 0 W/m² | - |
| 1777919405 | 20.56° C | 51% | 1015.9 hPa | 0 mm | - | 0 W/m² | - |
| 1777917306 | 21.11° C | 48% | 1016.3 hPa | 0 mm | - | 13 W/m² | - |
| 1777916705 | 21.67° C | 47% | 1016.1 hPa | 0 mm | - | 18 W/m² | - |
| 1777914605 | 22.22° C | 45% | 1015.9 hPa | 0 mm | - | 30 W/m² | - |
| 1777913105 | 22.78° C | 44% | 1015.9 hPa | 0 mm | - | 139 W/m² | - |
| 1777912205 | 23.33° C | 43% | 1015.9 hPa | 0 mm | - | 198 W/m² | - |
* Rain latest hour (hover to see other rain measurements)
** Current wind speed in m/s (hover to see current wind gust speed)